Location: Riverside
(39.1734°N, 77.8561°W)
Time: 10:45:53
(UTC+00:00)

BEESAT 3 - Pass Details

Date: 26 May 2019
Orbit: 484 x 526 km, 64.9° (Epoch: 16 June)

Event Time Altitude Azimuth Distance (km) Brightness Sun altitude
Rises 05:20:26 0° 334° (NNW) 2,663 ? -29.7°
Reaches altitude 10° 05:22:42 10° 341° (NNW) 1,772 ? -29.7°
Enters shadow 05:24:53 28° 0° (N) 1,008 ? -29.6°
